Location: Hradec Kralove
(50.2170°N, 15.8330°E)
Time: 08:45:42
(UTC+02:00)

ISS - Visible Passes

Search period start: 28 September 2020 00:00
Search period end: 08 October 2020 00:00
Orbit: 419 x 421 km, 51.6° (Epoch: 29 September)

Date Brightness Start Highest point End Pass type
(mag) Time Alt. Az. Time Alt. Az. Time Alt. Az.
28 Sep -3.8 20:14:45 10° WNW 20:18:08 76° N 20:19:09 42° E visible
28 Sep -0.6 21:51:40 10° W 21:52:07 13° W 21:52:07 13° W visible
29 Sep -3.6 19:27:28 10° W 19:30:51 68° N 19:33:39 14° E visible
29 Sep -2.3 21:04:21 10° WNW 21:06:37 36° W 21:06:37 36° W visible
30 Sep -3.7 20:17:03 10° WNW 20:20:26 73° SSW 20:21:09 51° SE visible
01 Oct -3.8 19:29:46 10° WNW 19:33:09 89° NNE 19:35:42 16° ESE visible
01 Oct -1.6 21:06:48 10° W 21:08:41 23° WSW 21:08:41 23° WSW visible
02 Oct -2.8 20:19:23 10° W 20:22:33 38° SSW 20:23:17 33° S visible
03 Oct -3.2 19:32:00 10° WNW 19:35:20 54° SSW 19:37:56 15° SE visible
03 Oct -0.9 21:09:58 10° WSW 21:10:54 12° SW 21:10:54 12° SW visible
04 Oct -1.5 20:22:00 10° W 20:24:28 19° SW 20:25:38 16° SSW visible
05 Oct -1.9 19:34:24 10° W 19:37:19 27° SW 19:40:12 10° SSE visible
07 Oct -0.9 19:37:30 10° WSW 19:39:03 13° SW 19:40:36 10° SSW visible
